BEIDOU-3 M28 (C50)

Last updated on Sat Aug 15 2026 00:03:26 GMT+0000 (Coordinated Universal Time)

1 58654U 23207A 26225.21685238 -.00000033 00000+0 00000+0 0 9999 2 58654 55.8060 60.3805 0001573 25.3690 334.7037 1.86229680 17903
UTC large
Height (km)
Speed (km/s)
/
Latitude / Longitude
Inclination (degrees)
Orbital Period (minutes)
Azimuth
Elevation
Range (km)
Doppler Factor

Next 0 passes for location: London (51.5072 / 0.1276)

No passes found over London.
BEIDOU-3 M28 (C50)